CW2988 Weather Reports


Display with metric or nautical units.
time (UTC)temp
F
wind
direction
speed
MPH
gust
MPH
rain 1hr
in
rain 24hr
in
rain mn
in
humidity
%
barometer
mb
20190117131728 29 92 0.0 0.0 0.00 0.01 0.00 92 1017.5
20190117131645 29 92 0.0 0.0 0.00 0.01 0.00 92 1017.5
20190117131537 29 92 0.0 0.0 0.00 0.01 0.00 92 1017.6
20190117131434 29 92 0.0 0.0 0.00 0.01 0.00 92 1017.5
20190117131241 29 92 0.0 0.0 0.00 0.01 0.00 92 1017.6
20190117131135 29 92 0.0 0.0 0.00 0.01 0.00 92 1017.6
20190117131028 29 92 0.0 0.0 0.00 0.01 0.00 92 1017.6
20190117130941 29 92 0.0 0.0 0.00 0.01 0.00 92 1017.6
20190117130833 29 92 0.0 0.0 0.00 0.01 0.00 92 1017.6
20190117130727 29 92 0.0 0.0 0.00 0.01 0.00 92 1017.6
20190117130646 29 92 0.0 0.0 0.00 0.01 0.00 92 1017.6
20190117130537 29 92 0.0 0.0 0.00 0.01 0.00 92 1017.5
20190117130429 29 92 0.0 0.0 0.00 0.01 0.00 92 1017.5
20190117130342 29 92 0.0 0.0 0.00 0.01 0.00 92 1017.5
20190117130238 29 92 0.0 0.0 0.00 0.01 0.00 91 1017.5
20190117130131 29 92 0.0 0.0 0.00 0.01 0.00 92 1017.5
20190117130047 29 92 0.0 0.0 0.00 0.01 0.00 92 1017.5
20190117125938 29 92 0.0 0.0 0.00 0.01 0.00 92 1017.5
20190117125836 29 92 0.0 0.0 0.00 0.01 0.00 92 1017.5
20190117125741 29 92 0.0 0.0 0.00 0.01 0.00 92 1017.5
20190117125633 29 92 0.0 0.0 0.00 0.01 0.00 91 1017.6
20190117125547 29 92 0.0 0.0 0.00 0.01 0.00 91 1017.6
20190117125438 29 92 0.0 0.0 0.00 0.01 0.00 91 1017.6
20190117125330 29 92 0.0 0.0 0.00 0.01 0.00 91 1017.6
20190117125238 29 92 0.0 0.0 0.00 0.01 0.00 92 1017.6
20190117125130 29 92 0.0 0.0 0.00 0.01 0.00 91 1017.6
20190117125046 29 92 0.0 0.0 0.00 0.01 0.00 91 1017.6
20190117124941 29 92 0.0 0.0 0.00 0.01 0.00 92 1017.6
20190117124837 29 92 0.0 0.0 0.00 0.01 0.00 91 1017.6
20190117124730 29 92 0.0 0.0 0.00 0.01 0.00 91 1017.6
20190117124645 29 92 0.0 0.0 0.00 0.01 0.00 91 1017.6
20190117124541 29 92 0.0 0.0 0.00 0.01 0.00 91 1017.7
20190117124346 29 92 0.0 0.0 0.00 0.01 0.00 91 1017.6
20190117124241 29 92 0.0 0.0 0.00 0.01 0.00 91 1017.7
20190117124135 29 92 0.0 0.0 0.00 0.01 0.00 91 1017.7
20190117124026 29 92 0.0 0.0 0.00 0.01 0.00 91 1017.7
20190117123943 29 92 0.0 0.0 0.00 0.01 0.00 91 1017.7
20190117123836 29 92 0.0 0.0 0.00 0.01 0.00 91 1017.8
20190117123727 29 92 0.0 0.0 0.00 0.01 0.00 91 1017.8
20190117123643 29 92 0.0 0.0 0.00 0.01 0.00 91 1017.8
20190117123538 29 92 0.0 0.0 0.00 0.01 0.00 91 1017.8
20190117123433 29 92 0.0 0.0 0.00 0.01 0.00 91 1017.7
20190117123329 29 92 0.0 0.0 0.00 0.01 0.00 91 1017.8
20190117123244 29 92 0.0 0.0 0.00 0.01 0.00 91 1017.8
20190117060045 29 100 0.0 0.0 0.00 0.01 0.00 86 1020.4
20190117055933 29 94 0.0 0.0 0.00 0.01 0.00 86 1020.4
20190117055828 29 92 0.0 0.0 0.00 0.01 0.00 86 1020.4
20190117055739 29 92 0.0 0.0 0.00 0.01 0.00 86 1020.4
20190117055634 29 90 0.0 0.0 0.00 0.01 0.01 86 1020.5
20190117055546 29 103 0.0 0.0 0.00 0.01 0.01 86 1020.5
20190117055442 29 89 0.0 0.0 0.00 0.01 0.01 86 1020.5
20190117055334 29 86 0.0 0.0 0.00 0.01 0.01 86 1020.5
20190117055247 29 90 0.0 0.0 0.00 0.01 0.01 86 1020.5
20190117055129 29 109 0.0 0.0 0.00 0.01 0.01 86 1020.5
20190117055043 29 108 0.0 0.0 0.00 0.01 0.01 86 1020.5
20190117054934 29 92 0.0 0.0 0.00 0.01 0.01 86 1020.5
20190117054829 29 88 0.0 0.0 0.00 0.01 0.01 86 1020.5
20190117054743 29 91 0.0 0.0 0.00 0.01 0.01 86 1020.5
20190117054636 29 121 0.0 0.0 0.00 0.01 0.01 86 1020.5
20190117054529 29 82 0.0 0.0 0.00 0.01 0.01 86 1020.5
20190117054446 29 91 0.0 0.0 0.00 0.01 0.01 86 1020.5
20190117054339 29 90 0.0 0.0 0.00 0.01 0.01 86 1020.4
20190117054231 29 102 0.0 0.0 0.00 0.01 0.01 86 1020.5
20190117054129 29 119 0.0 0.0 0.00 0.01 0.01 86 1020.4
20190117054041 29 119 0.0 0.0 0.00 0.01 0.01 86 1020.5
20190117053933 29 107 0.0 0.0 0.00 0.01 0.01 86 1020.5
20190117053827 29 126 0.0 0.0 0.00 0.01 0.01 86 1020.5
20190117053740 29 117 0.0 0.0 0.00 0.01 0.01 86 1020.5
20190117053542 29 88 0.0 0.0 0.00 0.01 0.01 86 1020.5
20190117053433 29 90 0.0 0.0 0.00 0.01 0.01 86 1020.5
20190117053330 29 126 0.0 0.0 0.00 0.01 0.01 86 1020.5
20190117053245 29 98 0.0 0.0 0.00 0.01 0.01 86 1020.5
20190117053138 29 113 0.0 0.0 0.00 0.01 0.01 86 1020.6
20190117053029 29 98 0.0 0.0 0.00 0.01 0.01 86 1020.5
20190117052941 29 85 0.0 0.0 0.00 0.01 0.01 86 1020.5
20190117052829 29 101 0.0 0.0 0.00 0.01 0.01 86 1020.5
20190117052737 29 105 0.0 0.0 0.00 0.01 0.01 86 1020.6
20190117052632 29 95 0.0 0.0 0.00 0.01 0.01 86 1020.6
20190117052531 29 85 0.0 0.0 0.00 0.01 0.01 86 1020.6
20190117052443 29 82 0.0 0.0 0.00 0.01 0.01 86 1020.6
20190117052337 29 86 0.0 0.0 0.00 0.01 0.01 86 1020.6
20190117052242 29 107 0.0 0.0 0.00 0.01 0.01 86 1020.6
20190117052136 29 111 0.0 0.0 0.00 0.01 0.01 86 1020.6
20190117052030 29 81 0.0 0.0 0.00 0.01 0.01 86 1020.6
20190117051946 29 87 0.0 0.0 0.00 0.01 0.01 86 1020.6
20190117051838 29 109 0.0 0.0 0.00 0.01 0.01 86 1020.5
20190117051731 29 105 0.0 0.0 0.00 0.01 0.01 86 1020.5
20190117051646 29 88 0.0 0.0 0.00 0.01 0.01 86 1020.5
20190117051538 29 101 0.0 0.0 0.00 0.01 0.01 86 1020.6
20190117051430 29 101 0.0 0.0 0.00 0.01 0.01 86 1020.6
20190117051340 29 101 0.0 0.0 0.00 0.01 0.01 86 1020.6
20190117051234 29 101 0.0 0.0 0.00 0.01 0.01 86 1020.7
20190117051127 29 101 0.0 0.0 0.00 0.01 0.01 86 1020.6
20190117051041 29 94 0.0 0.0 0.00 0.01 0.01 86 1020.6
20190117050940 29 100 0.0 0.0 0.00 0.01 0.01 86 1020.7
20190117050834 29 100 0.0 0.0 0.00 0.01 0.01 86 1020.7
20190117050727 29 87 0.0 0.0 0.00 0.01 0.01 86 1020.7
20190117050639 29 80 0.0 0.0 0.00 0.01 0.01 86 1020.7
20190117050531 29 74 0.0 0.0 0.00 0.01 0.01 86 1020.7
20190117050445 29 82 0.0 0.0 0.00 0.01 0.01 86 1020.7
20190117050337 29 86 0.0 0.0 0.00 0.01 0.01 86 1020.7
20190117050128 29 96 0.0 0.0 0.00 0.01 0.01 86 1020.7
20190117050044 29 99 0.0 0.0 0.00 0.01 0.01 86 1020.7
20190117045935 29 111 0.0 0.0 0.00 0.01 0.01 86 1020.7
20190117045828 29 111 0.0 0.0 0.00 0.01 0.01 86 1020.7
20190117045742 29 84 0.0 0.0 0.00 0.01 0.01 86 1020.7
20190117045635 29 91 0.0 0.0 0.00 0.01 0.01 86 1020.7
20190117045528 29 80 0.0 0.0 0.00 0.01 0.01 86 1020.7
20190117045338 29 80 0.0 0.0 0.00 0.01 0.01 86 1020.7
20190117045230 29 88 0.0 0.0 0.00 0.01 0.01 86 1020.7
20190117045141 29 81 0.0 0.0 0.00 0.01 0.01 86 1020.7
20190117045036 29 86 0.0 0.0 0.00 0.01 0.01 86 1020.7
20190117044930 29 98 0.0 0.0 0.00 0.01 0.01 86 1020.7
20190117044845 29 98 0.0 0.0 0.00 0.01 0.01 86 1020.7
20190117044738 29 99 0.0 0.0 0.00 0.01 0.01 86 1020.7
20190117044635 29 105 0.0 0.0 0.00 0.01 0.01 86 1020.7
20190117044527 29 82 0.0 0.0 0.00 0.01 0.01 86 1020.7
20190117044441 29 92 0.0 0.0 0.00 0.01 0.01 86 1020.7
20190117044336 29 92 0.0 0.0 0.00 0.01 0.01 86 1020.7
20190117044229 29 87 0.0 0.0 0.00 0.01 0.01 86 1020.7
20190117044140 29 89 0.0 0.0 0.00 0.01 0.01 86 1020.8
20190117044030 29 110 0.0 0.0 0.00 0.01 0.01 86 1020.7
20190117043943 29 109 0.0 0.0 0.00 0.01 0.01 86 1020.7
20190117043838 29 109 0.0 0.0 0.00 0.01 0.01 86 1020.8
20190117043732 29 109 0.0 0.0 0.00 0.01 0.01 86 1020.8
20190117043646 29 108 0.0 0.0 0.00 0.01 0.01 86 1020.8
20190117043541 29 105 0.0 0.0 0.00 0.01 0.01 86 1020.8
20190117043433 29 88 0.0 0.0 0.00 0.01 0.01 86 1020.7
20190117043326 29 88 0.0 0.0 0.00 0.01 0.01 86 1020.7
20190117043130 29 92 0.0 0.0 0.00 0.01 0.01 86 1020.7
20190117043028 29 90 0.0 0.0 0.00 0.01 0.01 86 1020.7
20190117042941 29 83 0.0 0.0 0.00 0.01 0.01 86 1020.7
20190117042833 29 88 0.0 0.0 0.00 0.01 0.01 86 1020.7
20190117042745 29 89 0.0 0.0 0.00 0.01 0.01 86 1020.7
20190117042640 29 96 0.0 0.0 0.00 0.01 0.01 86 1020.7
20190117042535 29 130 0.0 0.0 0.00 0.01 0.01 86 1020.7
20190117042430 29 97 0.0 0.0 0.00 0.01 0.01 86 1020.8
20190117042328 29 98 0.0 0.0 0.00 0.01 0.01 86 1020.8
20190117042241 29 90 0.0 0.0 0.00 0.01 0.01 86 1020.8
20190117042135 29 91 0.0 0.0 0.00 0.01 0.01 86 1020.8
20190117042027 29 91 0.0 0.0 0.00 0.01 0.01 86 1020.7
20190117041942 29 90 0.0 0.0 0.00 0.01 0.01 86 1020.7
20190117041837 29 92 0.0 0.0 0.00 0.01 0.01 86 1020.8
20190117041730 29 96 0.0 0.0 0.00 0.01 0.01 86 1020.7
20190117041645 29 92 0.0 0.0 0.00 0.01 0.01 86 1020.7
20190117041542 29 92 0.0 0.0 0.00 0.01 0.01 86 1020.8
20190117041434 29 97 0.0 0.0 0.00 0.01 0.01 86 1020.7
20190117041349 29 97 0.0 0.0 0.00 0.01 0.01 86 1020.7
20190117041240 29 103 0.0 0.0 0.00 0.01 0.01 86 1020.8
20190117041132 29 100 0.0 0.0 0.00 0.01 0.01 86 1020.7
20190117041028 29 91 0.0 0.0 0.00 0.01 0.01 86 1020.8
20190117040945 29 91 0.0 0.0 0.00 0.01 0.01 86 1020.8
20190117040840 29 91 0.0 0.0 0.00 0.01 0.01 86 1020.8
20190117040736 29 88 0.0 0.0 0.00 0.01 0.01 86 1020.8
20190117040628 29 106 0.0 0.0 0.00 0.01 0.01 86 1020.8
20190117040540 29 107 0.0 0.0 0.00 0.01 0.01 86 1020.8
20190117040433 29 110 0.0 0.0 0.00 0.01 0.01 86 1020.8
20190117040344 29 90 0.0 0.0 0.00 0.01 0.01 86 1020.8
20190117040235 29 90 0.0 0.0 0.00 0.01 0.01 85 1020.8
20190117040154 29 90 0.0 0.0 0.00 0.01 0.01 85 1020.8
20190117040048 29 88 0.0 0.0 0.00 0.01 0.01 85 1020.8
20190117035937 29 84 0.0 0.0 0.00 0.01 0.01 85 1020.8
20190117035829 29 98 0.0 0.0 0.00 0.01 0.01 85 1020.8
20190117035743 29 96 0.0 0.0 0.00 0.01 0.01 85 1020.8
20190117035638 29 89 0.0 0.0 0.00 0.01 0.01 85 1020.8
20190117035530 29 96 0.0 0.0 0.00 0.01 0.01 85 1020.8
20190117035339 29 81 0.0 0.0 0.00 0.01 0.01 85 1020.8
20190117035237 29 83 0.0 0.0 0.00 0.01 0.01 85 1020.9
20190117035045 29 101 0.0 0.0 0.00 0.01 0.01 85 1020.9
20190117034940 29 83 0.0 0.0 0.00 0.01 0.01 85 1021.0
20190117034831 29 88 0.0 0.0 0.00 0.01 0.01 85 1020.9
20190117034745 29 95 0.0 0.0 0.00 0.01 0.01 85 1020.9
20190117034640 29 105 0.0 0.0 0.00 0.01 0.01 85 1020.9
20190117034533 29 92 0.0 0.0 0.00 0.01 0.01 85 1020.9
20190117034346 29 92 0.0 0.0 0.00 0.01 0.01 85 1020.9
20190117034241 29 90 0.0 0.0 0.00 0.01 0.01 85 1020.9
20190117034134 29 92 0.0 0.0 0.00 0.01 0.01 85 1020.9
20190117034028 29 97 0.0 0.0 0.00 0.01 0.01 85 1020.9
20190117033943 29 86 0.0 0.0 0.00 0.01 0.01 85 1020.9
20190117033837 29 88 0.0 0.0 0.00 0.01 0.01 85 1020.9
20190117033735 29 98 0.0 0.0 0.00 0.01 0.01 85 1020.9
20190117033629 29 85 0.0 0.0 0.00 0.01 0.01 85 1021.0
20190117033547 29 89 0.0 0.0 0.00 0.01 0.01 85 1021.0
20190117033439 29 94 0.0 0.0 0.00 0.01 0.01 85 1020.9
20190117033328 29 80 0.0 0.0 0.00 0.01 0.01 85 1021.0
20190117033242 29 92 0.0 0.0 0.00 0.01 0.01 85 1021.0
20190117033136 29 85 0.0 0.0 0.00 0.01 0.01 85 1020.9
20190117033032 29 82 0.0 0.0 0.00 0.01 0.01 85 1020.9
20190117032931 29 83 0.0 0.0 0.00 0.01 0.01 85 1020.9
20190117032845 29 93 0.0 0.0 0.00 0.01 0.01 85 1020.9
20190117032742 29 96 0.0 0.0 0.00 0.01 0.01 85 1020.9
20190117032627 29 112 0.0 0.0 0.00 0.01 0.01 85 1020.9
20190117032538 29 91 0.0 0.0 0.00 0.01 0.01 85 1020.9
20190117032428 29 95 0.0 0.0 0.00 0.01 0.01 85 1020.9
20190117032237 29 84 0.0 0.0 0.00 0.01 0.01 85 1020.9
20190117032135 29 97 0.0 0.0 0.00 0.01 0.01 85 1020.9
20190117032030 29 93 0.0 0.0 0.00 0.01 0.01 85 1020.9
20190117031942 29 92 0.0 0.0 0.00 0.01 0.01 85 1020.9
20190117031831 29 87 0.0 0.0 0.00 0.01 0.01 85 1020.9
20190117031748 29 88 0.0 0.0 0.00 0.01 0.01 85 1020.9
20190117031638 29 84 0.0 0.0 0.00 0.01 0.01 85 1020.9
20190117031535 29 98 0.0 0.0 0.00 0.01 0.01 85 1020.9
20190117031428 29 78 0.0 0.0 0.00 0.01 0.01 85 1020.9
20190117031344 29 76 0.0 0.0 0.00 0.01 0.01 85 1020.9
20190117031235 29 88 0.0 0.0 0.00 0.01 0.01 85 1020.9
20190117031130 29 82 1.0 0.0 0.00 0.01 0.01 85 1020.9
20190117031043 29 86 2.0 0.0 0.00 0.01 0.01 85 1020.9
20190117030937 28 150 3.0 6.0 0.00 0.01 0.01 84 1020.9
20190117030831 28 150 3.0 6.0 0.00 0.01 0.01 84 1020.9
20190117030745 28 150 3.0 6.0 0.00 0.01 0.01 84 1020.9
20190117030644 28 150 3.0 6.0 0.00 0.01 0.01 84 1020.9
20190117030536 28 150 3.0 6.0 0.00 0.01 0.01 84 1020.8
20190117030429 28 150 3.0 6.0 0.00 0.01 0.01 84 1020.8
20190117030344 28 150 3.0 6.0 0.00 0.01 0.01 84 1020.8
20190117030240 28 150 3.0 6.0 0.00 0.01 0.01 84 1020.8
20190117030134 28 150 3.0 6.0 0.00 0.01 0.01 84 1020.9
20190117030028 27 150 2.0 4.0 0.00 0.01 0.01 84 1020.9
20190117025942 27 150 2.0 4.0 0.00 0.01 0.01 84 1020.9
20190117025837 27 150 2.0 4.0 0.00 0.01 0.01 84 1021.0
20190117025733 28 150 2.0 3.0 0.00 0.01 0.01 84 1020.9
20190117025626 27 150 2.0 3.0 0.00 0.01 0.01 84 1020.9
20190117025540 27 150 2.0 3.0 0.00 0.01 0.01 84 1021.0
20190117025428 27 150 2.0 3.0 0.00 0.01 0.01 84 1021.0
20190117025343 27 150 2.0 3.0 0.00 0.01 0.01 84 1021.0
20190117025235 27 150 2.0 3.0 0.00 0.01 0.01 84 1021.0
20190117025132 27 150 2.0 3.0 0.00 0.01 0.01 84 1020.9
20190117025045 27 150 2.0 3.0 0.00 0.01 0.01 84 1020.9
20190117024940 28 150 2.0 4.0 0.00 0.01 0.01 84 1020.9
20190117024835 27 150 2.0 4.0 0.00 0.01 0.01 84 1020.9
20190117024727 28 151 2.0 4.0 0.00 0.01 0.01 84 1021.0
20190117024644 28 151 2.0 4.0 0.00 0.01 0.01 84 1021.0
20190117024540 28 150 2.0 4.0 0.00 0.01 0.01 84 1020.9
20190117024331 28 150 2.0 4.0 0.00 0.01 0.01 84 1020.9
20190117024243 28 150 2.0 4.0 0.00 0.01 0.01 84 1020.9
20190117024030 28 150 2.0 4.0 0.00 0.01 0.01 84 1020.9
20190117023735 28 150 2.0 5.0 0.00 0.01 0.01 84 1020.8
20190117023632 28 150 2.0 5.0 0.00 0.01 0.01 83 1020.8
20190117023527 28 150 2.0 5.0 0.00 0.01 0.01 83 1020.8
20190117023441 28 150 3.0 5.0 0.00 0.01 0.01 83 1020.9
20190117023335 28 150 2.0 5.0 0.00 0.01 0.01 83 1020.8
20190117023228 28 150 2.0 5.0 0.00 0.01 0.01 83 1020.8
20190117023143 28 150 2.0 5.0 0.00 0.01 0.01 83 1020.8
20190117023032 28 150 2.0 5.0 0.00 0.01 0.01 83 1020.9
20190117022947 28 150 2.0 5.0 0.00 0.01 0.01 83 1020.9
20190117022843 28 150 3.0 5.0 0.00 0.01 0.01 83 1020.9
20190117022737 28 150 2.0 5.0 0.00 0.01 0.01 83 1020.8
20190117022627 28 150 2.0 4.0 0.00 0.01 0.01 83 1020.8
20190117022543 28 150 3.0 4.0 0.00 0.01 0.01 83 1020.8
20190117022438 28 150 3.0 4.0 0.00 0.01 0.01 83 1020.8
20190117022333 28 150 3.0 4.0 0.00 0.01 0.01 83 1020.8
20190117022227 28 150 2.0 4.0 0.00 0.01 0.01 83 1020.8
20190117022126 28 150 2.0 4.0 0.00 0.01 0.01 83 1020.8
20190117022038 28 150 2.0 4.0 0.00 0.01 0.01 83 1020.9
20190117021930 28 151 3.0 4.0 0.00 0.01 0.01 83 1020.9
20190117021846 28 150 2.0 4.0 0.00 0.01 0.01 83 1020.9
20190117021734 28 150 2.0 4.0 0.00 0.01 0.01 83 1020.9
20190117021627 28 150 2.0 4.0 0.00 0.01 0.01 83 1020.9
20190117021540 28 150 2.0 4.0 0.00 0.01 0.01 83 1020.9
20190117021434 28 151 2.0 4.0 0.00 0.01 0.01 83 1020.9
20190117021334 28 151 2.0 4.0 0.00 0.01 0.01 83 1020.9
20190117021229 28 150 1.0 4.0 0.00 0.01 0.01 83 1020.9
20190117021140 28 150 1.0 4.0 0.00 0.01 0.01 83 1021.0
20190117021032 28 150 1.0 4.0 0.00 0.01 0.01 83 1020.9
20190117020948 28 150 1.0 4.0 0.00 0.01 0.01 83 1020.9
20190117020900 28 150 1.0 4.0 0.00 0.01 0.01 83 1020.9
20190117020729 28 150 1.0 4.0 0.00 0.01 0.01 83 1020.9
20190117020643 28 151 1.0 4.0 0.00 0.01 0.01 83 1020.9
20190117020537 28 150 2.0 4.0 0.00 0.01 0.01 83 1020.9
20190117020435 28 150 2.0 4.0 0.00 0.01 0.01 83 1020.9
20190117020329 28 150 3.0 4.0 0.00 0.01 0.01 83 1020.8
20190117020249 28 150 3.0 4.0 0.00 0.01 0.01 83 1020.8
20190117020203 28 150 3.0 4.0 0.00 0.01 0.01 83 1020.8
20190117020042 27 150 2.0 4.0 0.00 0.01 0.01 83 1020.9
20190117015928 28 150 1.0 4.0 0.00 0.01 0.01 83 1020.9
20190117015842 28 150 1.0 4.0 0.00 0.01 0.01 83 1020.9
20190117015736 28 150 1.0 4.0 0.00 0.01 0.01 83 1020.9
20190117015629 28 150 1.0 4.0 0.00 0.01 0.01 83 1020.9
20190117015544 28 150 1.0 4.0 0.00 0.01 0.01 83 1020.9
20190117015433 28 150 1.0 4.0 0.00 0.01 0.01 83 1021.0
20190117015346 27 150 1.0 4.0 0.00 0.01 0.01 83 1021.0
20190117015238 28 150 1.0 4.0 0.00 0.01 0.01 83 1021.0
20190117015132 28 150 1.0 4.0 0.00 0.01 0.01 83 1021.1
20190117015037 28 150 0.0 4.0 0.00 0.01 0.01 83 1021.1
20190117014932 28 151 1.0 4.0 0.00 0.01 0.01 83 1021.0
20190117014826 28 150 1.0 4.0 0.00 0.01 0.01 83 1021.0
20190117014739 28 150 1.0 4.0 0.00 0.01 0.01 83 1021.0
20190117014633 28 150 1.0 4.0 0.00 0.01 0.01 83 1021.0
20190117014526 28 150 1.0 4.0 0.00 0.01 0.01 83 1021.0
20190117014440 28 150 1.0 4.0 0.00 0.01 0.01 83 1021.0
20190117014333 28 150 2.0 4.0 0.00 0.01 0.01 83 1021.0
20190117014227 28 150 2.0 5.0 0.00 0.01 0.01 83 1021.0
20190117014141 28 150 2.0 5.0 0.00 0.01 0.01 83 1021.0
20190117014040 28 150 2.0 5.0 0.00 0.01 0.01 83 1021.0
20190117013929 27 150 2.0 5.0 0.00 0.01 0.01 83 1021.1
20190117013841 27 150 2.0 5.0 0.00 0.01 0.01 83 1021.1
20190117013736 28 150 3.0 5.0 0.00 0.01 0.01 83 1021.0
20190117013630 27 150 3.0 5.0 0.00 0.01 0.01 83 1021.0
20190117013545 27 150 3.0 5.0 0.00 0.01 0.01 83 1021.0
20190117013438 27 150 3.0 5.0 0.00 0.01 0.01 83 1021.2
20190117013331 27 150 2.0 5.0 0.00 0.01 0.01 83 1021.1
20190117013241 27 150 2.0 5.0 0.00 0.01 0.01 83 1021.2
20190117013135 27 150 2.0 5.0 0.00 0.01 0.01 83 1021.2
20190117013027 27 150 2.0 5.0 0.00 0.01 0.01 82 1021.2
20190117012941 27 150 3.0 5.0 0.00 0.01 0.01 83 1021.2
20190117012836 27 150 3.0 5.0 0.00 0.01 0.01 83 1021.2
20190117012727 27 150 2.0 5.0 0.00 0.01 0.01 83 1021.2
20190117012638 27 150 2.0 4.0 0.00 0.01 0.01 83 1021.2
20190117012536 27 151 2.0 4.0 0.00 0.01 0.01 83 1021.2
20190117012429 27 150 2.0 3.0 0.00 0.01 0.01 83 1021.2
20190117011842 27 150 2.0 3.0 0.00 0.01 0.01 84 1021.2
20190117011737 27 150 2.0 3.0 0.00 0.01 0.01 84 1021.2
20190117011627 27 150 1.0 4.0 0.00 0.01 0.01 84 1021.2
20190117011544 27 150 1.0 4.0 0.00 0.01 0.01 84 1021.2
20190117011438 27 150 1.0 4.0 0.00 0.01 0.01 84 1021.3
20190117011330 27 151 1.0 4.0 0.00 0.01 0.01 84 1021.3
20190117011228 27 150 1.0 4.0 0.00 0.01 0.01 84 1021.3
20190117011141 27 150 1.0 4.0 0.00 0.01 0.01 84 1021.3
20190117011036 27 150 1.0 4.0 0.00 0.01 0.01 84 1021.2
20190117010927 27 150 2.0 4.0 0.00 0.01 0.01 84 1021.3
20190117010733 27 150 2.0 4.0 0.00 0.01 0.01 84 1021.2
20190117010541 27 150 2.0 4.0 0.00 0.01 0.01 84 1021.3
20190117010440 27 150 2.0 3.0 0.00 0.01 0.01 84 1021.3
20190117010334 27 150 1.0 3.0 0.00 0.01 0.01 84 1021.3
20190117010226 27 150 1.0 3.0 0.00 0.01 0.01 85 1021.2
20190117010144 27 150 1.0 3.0 0.00 0.01 0.01 85 1021.2
20190117010037 27 150 1.0 3.0 0.00 0.01 0.01 85 1021.3
20190117005931 27 150 1.0 3.0 0.00 0.01 0.01 85 1021.3
20190117005824 27 150 1.0 4.0 0.00 0.01 0.01 85 1021.3
20190117005746 27 150 1.0 4.0 0.00 0.01 0.01 85 1021.3
20190117005638 27 150 1.0 4.0 0.00 0.01 0.01 85 1021.3
20190117005530 27 150 1.0 4.0 0.00 0.01 0.01 85 1021.4
20190117005445 27 151 1.0 4.0 0.00 0.01 0.01 85 1021.4
20190117005338 27 150 2.0 4.0 0.00 0.01 0.01 85 1021.3
20190117005231 27 150 2.0 4.0 0.00 0.01 0.01 85 1021.3
20190117005145 27 150 2.0 4.0 0.00 0.01 0.01 85 1021.3
20190117005039 27 150 2.0 4.0 0.00 0.01 0.01 85 1021.4
20190117004937 27 150 2.0 4.0 0.00 0.01 0.01 85 1021.5
20190117004832 27 151 2.0 4.0 0.00 0.01 0.01 85 1021.5
20190117004726 27 150 2.0 4.0 0.00 0.01 0.01 85 1021.5
20190117004637 27 150 3.0 4.0 0.00 0.01 0.01 85 1021.4
20190117004533 27 150 3.0 4.0 0.00 0.01 0.01 85 1021.4
20190117004427 27 150 3.0 4.0 0.00 0.01 0.01 85 1021.4
20190117004342 27 150 3.0 4.0 0.00 0.01 0.01 85 1021.4
20190117004242 27 150 2.0 4.0 0.00 0.01 0.01 85 1021.5
20190117004134 27 150 1.0 4.0 0.00 0.01 0.01 84 1021.5
20190117004028 27 150 1.0 3.0 0.00 0.01 0.01 84 1021.5
20190117003942 27 150 1.0 2.0 0.00 0.01 0.01 84 1021.5
20190117003833 27 150 1.0 2.0 0.00 0.01 0.01 84 1021.5
20190117003742 27 150 1.0 2.0 0.00 0.01 0.01 84 1021.5
20190117003633 27 150 1.0 2.0 0.00 0.01 0.01 84 1021.5
20190117003525 27 150 1.0 3.0 0.00 0.01 0.01 84 1021.5
20190117003445 27 150 1.0 3.0 0.00 0.01 0.01 84 1021.5
20190117003339 27 150 1.0 3.0 0.00 0.01 0.01 84 1021.4
20190117003235 27 150 1.0 3.0 0.00 0.01 0.01 84 1021.5
20190117003127 27 150 1.0 3.0 0.00 0.01 0.01 84 1021.5
20190117003041 27 150 1.0 3.0 0.00 0.01 0.01 84 1021.5
20190117002827 27 151 1.0 3.0 0.00 0.01 0.01 84 1021.5
20190117002740 27 150 1.0 3.0 0.00 0.01 0.01 84 1021.5
20190117002637 27 150 1.0 3.0 0.00 0.01 0.01 84 1021.6
20190117002533 27 150 1.0 3.0 0.00 0.01 0.01 83 1021.5
20190117002426 27 150 1.0 3.0 0.00 0.01 0.01 83 1021.6
20190117002341 27 150 1.0 3.0 0.00 0.01 0.01 83 1021.6
20190117002231 27 150 1.0 3.0 0.00 0.01 0.01 83 1021.5
20190117002127 27 150 1.0 3.0 0.00 0.01 0.01 83 1021.6
20190117001940 27 150 1.0 3.0 0.00 0.01 0.01 83 1021.6
20190117001833 27 150 1.0 3.0 0.00 0.01 0.01 83 1021.6
20190117001729 27 150 2.0 3.0 0.00 0.01 0.01 83 1021.6
20190117001642 27 150 2.0 3.0 0.00 0.01 0.01 83 1021.6
20190117001535 27 150 1.0 3.0 0.00 0.01 0.01 83 1021.6
20190117001427 27 150 1.0 3.0 0.00 0.01 0.01 83 1021.6
20190117001341 27 150 1.0 3.0 0.00 0.01 0.01 83 1021.6
20190117001236 27 151 1.0 3.0 0.00 0.01 0.01 83 1021.6
20190117001136 27 150 2.0 4.0 0.00 0.01 0.01 83 1021.6
20190117001030 27 150 1.0 4.0 0.00 0.01 0.01 83 1021.6
20190117000941 27 151 2.0 4.0 0.00 0.01 0.01 83 1021.6
20190117000833 27 151 2.0 4.0 0.00 0.01 0.01 83 1021.7
20190117000748 27 150 2.0 4.0 0.00 0.01 0.01 83 1021.7
20190117000634 27 150 2.0 4.0 0.00 0.01 0.01 83 1021.7
20190117000556 27 150 2.0 4.0 0.00 0.01 0.01 83 1021.7
20190117000510 28 150 3.0 4.0 0.00 0.01 0.01 83 1021.7
20190117000233 28 150 3.0 3.0 0.00 0.01 0.01 83 1021.8
20190117000153 28 150 3.0 3.0 0.00 0.01 0.01 83 1021.8
20190117000033 28 150 2.0 3.0 0.00 0.01 0.01 83 1021.7
20190116235946 28 151 2.0 3.0 0.00 0.01 0.01 83 1021.7
20190116235842 28 150 2.0 3.0 0.00 0.01 0.01 83 1021.7
20190116235735 28 150 1.0 4.0 0.00 0.01 0.01 83 1021.8
20190116235631 28 150 1.0 4.0 0.00 0.01 0.01 83 1021.7
20190116235528 28 150 1.0 4.0 0.00 0.01 0.01 83 1021.8
20190116235444 28 150 2.0 4.0 0.00 0.01 0.01 83 1021.8
20190116235338 28 151 2.0 4.0 0.00 0.01 0.01 83 1021.7
20190116235232 28 151 2.0 4.0 0.00 0.01 0.01 83 1021.8
20190116235127 28 150 2.0 4.0 0.00 0.01 0.01 83 1021.8
20190116235042 28 150 2.0 4.0 0.00 0.01 0.01 83 1021.8
20190116234937 28 150 2.0 4.0 0.00 0.01 0.01 83 1021.8
20190116234828 28 150 2.0 4.0 0.00 0.01 0.01 83 1021.8
20190116234728 28 150 2.0 3.0 0.00 0.01 0.01 83 1021.8
20190116234642 28 150 2.0 3.0 0.00 0.01 0.01 83 1021.8
20190116234536 28 150 2.0 3.0 0.00 0.01 0.01 83 1021.8
20190116234429 28 150 2.0 3.0 0.00 0.01 0.01 83 1021.9
20190116234240 28 150 2.0 3.0 0.00 0.01 0.01 83 1021.9
20190116234133 28 150 2.0 3.0 0.00 0.01 0.01 83 1021.8
20190116234032 28 150 2.0 3.0 0.00 0.01 0.01 83 1021.8
20190116233935 28 150 2.0 4.0 0.00 0.01 0.01 83 1021.8
20190116233829 28 150 2.0 4.0 0.00 0.01 0.01 83 1021.8
20190116233742 28 150 1.0 4.0 0.00 0.01 0.01 83 1021.8
20190116233528 28 150 2.0 4.0 0.00 0.01 0.01 82 1021.8
20190116233442 28 150 2.0 4.0 0.00 0.01 0.01 82 1021.8
20190116233337 28 150 2.0 4.0 0.00 0.01 0.01 82 1021.8
20190116233232 28 150 2.0 4.0 0.00 0.01 0.01 82 1021.8
20190116233126 28 150 2.0 4.0 0.00 0.01 0.01 82 1021.8
20190116233042 28 150 2.0 4.0 0.00 0.01 0.01 82 1021.8
20190116232936 28 150 2.0 3.0 0.00 0.01 0.01 82 1021.8
20190116232827 28 150 2.0 3.0 0.00 0.01 0.01 82 1021.8
20190116232742 28 150 1.0 3.0 0.00 0.01 0.01 82 1021.8
20190116232637 28 150 1.0 3.0 0.00 0.01 0.01 83 1021.8
20190116232530 28 150 1.0 4.0 0.00 0.01 0.01 82 1021.7
20190116232429 28 150 2.0 4.0 0.00 0.01 0.01 82 1021.7
20190116232336 28 150 1.0 4.0 0.00 0.01 0.01 82 1021.8
20190116232228 28 150 1.0 4.0 0.00 0.01 0.01 83 1021.7
20190116232142 28 151 2.0 4.0 0.00 0.01 0.01 82 1021.7
20190116232035 28 150 2.0 4.0 0.00 0.01 0.01 82 1021.8
20190116231928 28 150 2.0 4.0 0.00 0.01 0.01 82 1021.8
20190116231842 28 150 2.0 4.0 0.00 0.01 0.01 83 1021.8
20190116231738 28 150 2.0 4.0 0.00 0.01 0.01 83 1021.8
20190116231531 28 150 2.0 4.0 0.00 0.01 0.01 83 1021.8
20190116231442 28 150 3.0 4.0 0.00 0.01 0.01 83 1021.8
20190116231331 28 150 3.0 4.0 0.00 0.01 0.01 83 1021.8
20190116231228 28 150 3.0 4.0 0.00 0.01 0.01 83 1021.8
20190116231140 28 150 2.0 4.0 0.00 0.01 0.01 83 1021.8
20190116231034 28 150 2.0 3.0 0.00 0.01 0.01 83 1021.8
20190116230929 28 150 2.0 3.0 0.00 0.01 0.01 83 1021.8
20190116230846 28 151 2.0 3.0 0.00 0.01 0.01 83 1021.8
20190116230741 28 150 2.0 3.0 0.00 0.01 0.01 83 1021.8
20190116230637 28 150 2.0 3.0 0.00 0.01 0.01 83 1021.8
20190116230440 28 150 2.0 3.0 0.00 0.01 0.01 83 1021.9
20190116230336 28 150 2.0 3.0 0.00 0.01 0.01 83 1021.8
20190116230232 28 150 2.0 3.0 0.00 0.01 0.01 83 1021.9
20190116230132 28 150 1.0 3.0 0.00 0.01 0.01 83 1021.9
20190116230027 28 150 1.0 3.0 0.00 0.01 0.01 83 1021.9
20190116225939 28 150 1.0 3.0 0.00 0.01 0.01 83 1021.9
20190116225833 28 150 1.0 3.0 0.00 0.01 0.01 83 1021.9
20190116225727 28 150 0.0 0.0 0.00 0.01 0.01 83 1021.9
20190116225634 28 150 0.0 0.0 0.00 0.01 0.01 83 1021.9
20190116225529 28 151 0.0 0.0 0.00 0.01 0.01 83 1021.9
20190116225426 28 150 0.0 0.0 0.00 0.01 0.01 83 1021.9
20190116225340 28 150 0.0 0.0 0.00 0.01 0.01 83 1022.0
20190116225228 28 150 0.0 0.0 0.00 0.01 0.01 83 1022.0
20190116225144 28 150 0.0 0.0 0.00 0.01 0.01 83 1022.0
20190116225040 28 150 0.0 0.0 0.00 0.01 0.01 83 1021.9
20190116224933 28 150 0.0 0.0 0.00 0.01 0.01 83 1022.0
20190116224826 28 150 0.0 0.0 0.00 0.01 0.01 83 1022.0
20190116224741 28 150 0.0 0.0 0.00 0.01 0.01 83 1022.0
20190116224531 28 150 0.0 0.0 0.00 0.01 0.01 83 1022.1
20190116224442 28 150 0.0 0.0 0.00 0.01 0.01 83 1022.1
20190116224335 28 150 0.0 0.0 0.00 0.01 0.01 83 1022.0
20190116224231 28 150 0.0 0.0 0.00 0.01 0.01 83 1022.0
20190116224142 28 150 0.0 0.0 0.00 0.01 0.01 83 1022.0
20190116224037 28 150 0.0 0.0 0.00 0.01 0.01 83 1022.1
20190116223928 28 150 0.0 0.0 0.00 0.01 0.01 83 1022.1
20190116223842 28 150 0.0 0.0 0.00 0.01 0.01 83 1022.1
20190116223738 28 150 0.0 0.0 0.00 0.01 0.01 83 1022.2
20190116223629 28 150 0.0 0.0 0.00 0.01 0.01 83 1022.2
20190116223541 28 151 0.0 0.0 0.00 0.01 0.01 83 1022.2
20190116223431 28 150 0.0 0.0 0.00 0.01 0.01 83 1022.2
20190116223344 28 150 0.0 0.0 0.00 0.01 0.01 83 1022.2
20190116223239 28 150 0.0 1.0 0.00 0.01 0.01 83 1022.2
20190116223133 28 150 0.0 1.0 0.00 0.01 0.01 83 1022.2
20190116223028 28 150 0.0 1.0 0.00 0.01 0.01 83 1022.2
20190116222943 28 150 0.0 1.0 0.00 0.01 0.01 83 1022.2
20190116222835 28 150 0.0 1.0 0.00 0.01 0.01 83 1022.3
20190116222643 28 150 0.0 1.0 0.00 0.01 0.01 83 1022.3
20190116222536 28 150 0.0 1.0 0.00 0.01 0.01 82 1022.4
20190116222433 28 150 1.0 1.0 0.00 0.01 0.01 82 1022.4
20190116222244 28 150 1.0 1.0 0.00 0.01 0.01 82 1022.3
20190116222135 28 151 1.0 1.0 0.00 0.01 0.01 82 1022.4
20190116222030 28 150 0.0 1.0 0.00 0.01 0.01 82 1022.4
20190116221833 28 150 1.0 2.0 0.00 0.01 0.01 82 1022.4
20190116221727 28 150 1.0 2.0 0.00 0.01 0.01 82 1022.4
20190116221643 28 150 1.0 2.0 0.00 0.01 0.01 82 1022.4
20190116221541 28 150 1.0 2.0 0.00 0.01 0.01 82 1022.3
20190116221435 28 150 1.0 2.0 0.00 0.01 0.01 82 1022.3
20190116221330 28 150 1.0 2.0 0.00 0.01 0.01 82 1022.3
20190116221242 28 150 1.0 3.0 0.00 0.01 0.01 82 1022.3
20190116221132 28 150 1.0 3.0 0.00 0.01 0.01 82 1022.4
20190116221026 28 150 1.0 3.0 0.00 0.01 0.01 81 1022.4
20190116220941 28 151 2.0 3.0 0.00 0.01 0.01 81 1022.4
20190116220835 28 150 2.0 3.0 0.00 0.01 0.01 81 1022.4
20190116220734 28 150 2.0 3.0 0.00 0.01 0.01 81 1022.3
20190116220628 28 150 2.0 3.0 0.00 0.01 0.01 81 1022.3
20190116220542 28 150 2.0 3.0 0.00 0.01 0.01 82 1022.3
20190116220436 28 150 2.0 3.0 0.00 0.01 0.01 81 1022.4
20190116220328 28 150 2.0 3.0 0.00 0.01 0.01 82 1022.4
20190116220251 28 150 2.0 3.0 0.00 0.01 0.01 82 1022.4
20190116220205 28 150 2.0 3.0 0.00 0.01 0.01 82 1022.4
20190116220042 28 150 2.0 3.0 0.00 0.01 0.01 81 1022.5
20190116215932 28 150 2.0 3.0 0.00 0.01 0.01 81 1022.4
20190116215827 28 150 2.0 3.0 0.00 0.01 0.01 81 1022.5
20190116215741 28 150 2.0 3.0 0.00 0.01 0.01 81 1022.5
20190116215635 28 150 2.0 3.0 0.00 0.01 0.01 81 1022.4
20190116215528 28 150 2.0 3.0 0.00 0.01 0.01 81 1022.5
20190116215445 28 150 2.0 3.0 0.00 0.01 0.01 82 1022.5
20190116215339 28 150 2.0 3.0 0.00 0.01 0.01 81 1022.4
20190116215236 28 150 2.0 3.0 0.00 0.01 0.01 81 1022.4
20190116215131 28 150 2.0 3.0 0.00 0.01 0.01 81 1022.5
20190116215026 28 151 2.0 3.0 0.00 0.01 0.01 81 1022.4
20190116214942 28 150 2.0 3.0 0.00 0.01 0.01 81 1022.4
20190116214836 28 150 2.0 3.0 0.00 0.01 0.01 81 1022.4
20190116214730 28 150 2.0 3.0 0.00 0.01 0.01 81 1022.4
20190116214538 28 150 2.0 3.0 0.00 0.01 0.01 81 1022.4
20190116214434 28 150 2.0 3.0 0.00 0.01 0.01 81 1022.4
20190116214330 28 150 2.0 3.0 0.00 0.01 0.01 81 1022.4
20190116214238 29 150 3.0 3.0 0.00 0.01 0.01 81 1022.4
20190116214132 29 150 3.0 3.0 0.00 0.01 0.01 81 1022.3
20190116214027 29 150 2.0 3.0 0.00 0.01 0.01 81 1022.3
20190116213940 29 150 2.0 3.0 0.00 0.01 0.01 80 1022.3
20190116213835 29 150 3.0 3.0 0.00 0.01 0.01 80 1022.3
20190116213733 29 150 2.0 3.0 0.00 0.01 0.01 80 1022.3
20190116213626 29 150 2.0 3.0 0.00 0.01 0.01 80 1022.3
20190116213543 29 150 1.0 3.0 0.00 0.01 0.01 81 1022.3
20190116213436 29 151 1.0 3.0 0.00 0.01 0.01 80 1022.2
20190116213327 29 150 2.0 3.0 0.00 0.01 0.01 80 1022.3
20190116213239 29 150 2.0 3.0 0.00 0.01 0.01 79 1022.2
20190116213133 29 150 2.0 4.0 0.00 0.01 0.01 79 1022.2
20190116213026 29 150 2.0 4.0 0.00 0.01 0.01 79 1022.2
20190116212941 29 150 2.0 4.0 0.00 0.01 0.01 79 1022.2
20190116212837 29 150 2.0 4.0 0.00 0.01 0.01 79 1022.2
20190116212731 29 150 3.0 4.0 0.00 0.01 0.01 78 1022.2
20190116212627 29 150 3.0 4.0 0.00 0.01 0.01 78 1022.2
20190116212543 29 150 3.0 4.0 0.00 0.01 0.01 79 1022.2
20190116212433 29 151 3.0 5.0 0.00 0.01 0.01 79 1022.2
20190116212328 29 150 3.0 5.0 0.00 0.01 0.01 79 1022.2
20190116212241 29 150 3.0 5.0 0.00 0.01 0.01 79 1022.2
20190116212139 29 151 4.0 5.0 0.00 0.01 0.01 79 1022.2
20190116212033 29 150 4.0 5.0 0.00 0.01 0.01 79 1022.2
20190116211927 29 150 4.0 5.0 0.00 0.01 0.01 79 1022.2
20190116211840 29 150 4.0 5.0 0.00 0.01 0.01 79 1022.2
20190116211727 29 150 4.0 5.0 0.00 0.01 0.01 79 1022.1
20190116211641 29 150 4.0 5.0 0.00 0.01 0.01 79 1022.2
20190116211532 29 150 4.0 5.0 0.00 0.01 0.01 79 1022.2
20190116211430 29 150 4.0 5.0 0.00 0.01 0.01 78 1022.2
20190116211345 29 150 4.0 5.0 0.00 0.01 0.01 78 1022.2
20190116211239 29 150 4.0 5.0 0.00 0.01 0.01 78 1022.2
20190116211133 29 150 4.0 5.0 0.00 0.01 0.01 78 1022.2
20190116211027 29 150 4.0 5.0 0.00 0.01 0.01 78 1022.1
20190116210942 29 150 4.0 5.0 0.00 0.01 0.01 77 1022.1
20190116210837 29 150 5.0 5.0 0.00 0.01 0.01 77 1022.1
20190116210728 29 150 4.0 5.0 0.00 0.01 0.01 77 1022.2
20190116210649 29 150 4.0 5.0 0.00 0.01 0.01 78 1022.2
20190116210540 29 150 4.0 5.0 0.00 0.01 0.01 78 1022.1
20190116210433 29 151 4.0 5.0 0.00 0.01 0.01 77 1022.1
20190116210345 29 150 4.0 5.0 0.00 0.01 0.01 78 1022.1
20190116210239 29 150 4.0 5.0 0.00 0.01 0.01 78 1022.1
20190116210129 29 150 4.0 5.0 0.00 0.01 0.01 78 1022.1
20190116210045 29 150 4.0 5.0 0.00 0.01 0.01 77 1022.1
20190116205940 29 150 3.0 5.0 0.00 0.01 0.01 78 1022.0
20190116205836 29 150 3.0 4.0 0.00 0.01 0.01 77 1022.0
20190116205731 29 150 2.0 3.0 0.00 0.01 0.01 77 1022.0
20190116205641 29 150 1.0 3.0 0.00 0.01 0.01 77 1022.0
20190116205536 29 150 0.0 0.0 0.00 0.01 0.01 77 1022.0
20190116205429 29 150 0.0 0.0 0.00 0.01 0.01 77 1022.0
20190116205345 29 150 0.0 0.0 0.00 0.01 0.01 77 1022.0
20190116205135 29 150 0.0 0.0 0.00 0.01 0.01 77 1022.0
20190116205028 29 150 0.0 0.0 0.00 0.01 0.01 76 1022.0
20190116204942 29 150 0.0 0.0 0.00 0.01 0.01 76 1021.9
20190116204833 29 150 0.0 0.0 0.00 0.01 0.01 76 1022.0
20190116204725 29 151 0.0 0.0 0.00 0.01 0.01 76 1022.0
20190116204643 29 150 0.0 0.0 0.00 0.01 0.01 77 1022.0
20190116204538 30 150 0.0 0.0 0.00 0.01 0.01 77 1022.0
20190116204434 30 150 0.0 0.0 0.00 0.01 0.01 76 1022.0
20190116204330 30 150 0.0 0.0 0.00 0.01 0.01 75 1022.0
20190116204245 30 150 0.0 0.0 0.00 0.01 0.01 75 1022.0
20190116204139 30 150 0.0 0.0 0.00 0.01 0.01 75 1021.9
20190116204033 30 151 0.0 0.0 0.00 0.01 0.01 75 1021.9
20190116203928 30 150 0.0 0.0 0.00 0.01 0.01 76 1021.9
20190116203845 30 151 0.0 0.0 0.00 0.01 0.01 75 1021.9
20190116203740 30 150 0.0 0.0 0.00 0.01 0.01 76 1021.8
20190116203638 30 151 0.0 0.0 0.00 0.01 0.01 77 1021.7
20190116203533 30 150 0.0 0.0 0.00 0.01 0.01 76 1021.8
20190116203426 30 150 0.0 0.0 0.00 0.01 0.01 76 1021.8
20190116203343 30 150 0.0 0.0 0.00 0.01 0.01 76 1021.8
20190116203235 30 150 0.0 0.0 0.00 0.01 0.01 75 1021.8
20190116203128 30 151 0.0 0.0 0.00 0.01 0.01 75 1021.8
20190116203045 30 150 0.0 0.0 0.00 0.01 0.01 75 1021.8
20190116202840 29 150 0.0 0.0 0.00 0.01 0.01 76 1021.8
20190116202733 29 151 0.0 0.0 0.00 0.01 0.01 77 1021.7
20190116202628 29 150 0.0 0.0 0.00 0.01 0.01 76 1021.7
20190116202541 29 150 0.0 0.0 0.00 0.01 0.01 75 1021.7
20190116202433 29 150 0.0 0.0 0.00 0.01 0.01 75 1021.7
20190116202327 30 150 0.0 0.0 0.00 0.01 0.01 75 1021.7
20190116202239 30 150 0.0 0.0 0.00 0.01 0.01 75 1021.7
20190116202134 30 150 0.0 0.0 0.00 0.01 0.01 75 1021.7
20190116202044 30 150 0.0 0.0 0.00 0.01 0.01 75 1021.7
20190116201940 30 150 0.0 0.0 0.00 0.01 0.01 75 1021.7
20190116201834 30 150 0.0 0.0 0.01 0.01 0.01 75 1021.7
20190116201643 30 150 0.0 0.0 0.01 0.01 0.01 75 1021.7
20190116201534 30 151 0.0 0.0 0.01 0.01 0.01 75 1021.7
20190116201447 30 150 0.0 0.0 0.01 0.01 0.01 75 1021.7
20190116201341 30 150 0.0 0.0 0.01 0.01 0.01 75 1021.7
20190116201232 30 150 0.0 0.0 0.01 0.01 0.01 75 1021.7
20190116201142 30 150 0.0 0.0 0.01 0.01 0.01 74 1021.7
20190116201037 30 150 0.0 0.0 0.01 0.01 0.01 74 1021.6
20190116200931 30 150 0.0 0.0 0.01 0.01 0.01 74 1021.6
20190116200845 30 150 0.0 0.0 0.01 0.01 0.01 74 1021.6
20190116200735 30 150 0.0 0.0 0.01 0.01 0.01 74 1021.6
20190116200626 30 150 0.0 0.0 0.01 0.01 0.01 74 1021.5
20190116200544 30 150 0.0 0.0 0.01 0.01 0.01 74 1021.5
20190116200437 30 151 0.0 0.0 0.01 0.01 0.01 73 1021.5
20190116200332 30 150 0.0 0.0 0.01 0.01 0.01 73 1021.5
20190116200225 30 150 0.0 0.0 0.01 0.01 0.01 73 1021.6
20190116200148 31 150 0.0 0.0 0.01 0.01 0.01 73 1021.6
20190116200038 31 150 0.0 0.0 0.01 0.01 0.01 73 1021.5
20190116195942 31 150 0.0 0.0 0.01 0.01 0.01 72 1021.5
20190116195836 31 150 0.0 0.0 0.01 0.01 0.01 72 1021.5
20190116195729 31 150 0.0 0.0 0.01 0.01 0.01 72 1021.5
20190116195645 31 150 0.0 0.0 0.01 0.01 0.01 71 1021.5
20190116195539 31 150 0.0 1.0 0.01 0.01 0.01 71 1021.5
20190116195433 31 151 0.0 2.0 0.01 0.01 0.01 71 1021.5
20190116195328 31 150 0.0 2.0 0.01 0.01 0.01 71 1021.5
20190116195243 31 150 0.0 2.0 0.01 0.01 0.01 71 1021.5
20190116195034 31 150 0.0 2.0 0.01 0.01 0.01 72 1021.5
20190116194929 31 150 0.0 2.0 0.01 0.01 0.01 72 1021.5
20190116194732 31 150 1.0 3.0 0.01 0.01 0.01 71 1021.5
20190116194625 31 150 1.0 3.0 0.01 0.01 0.01 72 1021.4
20190116194540 31 150 1.0 3.0 0.01 0.01 0.01 71 1021.5
20190116194435 31 150 1.0 3.0 0.01 0.01 0.01 71 1021.4
20190116194328 31 150 2.0 3.0 0.01 0.01 0.01 71 1021.5
20190116194225 31 150 2.0 3.0 0.01 0.01 0.01 71 1021.4
20190116194136 31 150 2.0 3.0 0.01 0.01 0.01 72 1021.4
20190116193938 31 150 2.0 3.0 0.01 0.01 0.01 72 1021.5
20190116193835 31 150 2.0 3.0 0.01 0.01 0.01 72 1021.5
20190116193728 31 150 2.0 3.0 0.01 0.01 0.01 72 1021.4
20190116193641 31 150 1.0 3.0 0.01 0.01 0.01 72 1021.4
20190116193538 31 150 1.0 3.0 0.01 0.01 0.01 73 1021.3
20190116193436 31 150 1.0 3.0 0.01 0.01 0.01 73 1021.4
20190116193330 31 150 1.0 3.0 0.01 0.01 0.01 73 1021.4
20190116193226 31 150 1.0 2.0 0.01 0.01 0.01 73 1021.4
20190116193136 31 150 0.0 2.0 0.01 0.01 0.01 74 1021.4
20190116193027 31 151 0.0 2.0 0.01 0.01 0.01 73 1021.3
20190116192942 31 150 1.0 2.0 0.01 0.01 0.01 73 1021.3
20190116192833 31 150 1.0 2.0 0.01 0.01 0.01 73 1021.4
20190116192742 31 150 0.0 2.0 0.01 0.01 0.01 74 1021.4
20190116192639 31 150 0.0 1.0 0.01 0.01 0.01 75 1021.4
20190116192533 30 150 0.0 1.0 0.01 0.01 0.01 75 1021.4
20190116192429 30 150 0.0 1.0 0.01 0.01 0.01 76 1021.4
20190116192343 30 150 0.0 2.0 0.01 0.01 0.01 77 1021.3
20190116192232 30 150 0.0 3.0 0.01 0.01 0.01 76 1021.4
20190116192127 30 150 0.0 3.0 0.01 0.01 0.01 76 1021.4
20190116192039 30 150 0.0 3.0 0.01 0.01 0.01 77 1021.3
20190116191932 29 150 0.0 3.0 0.01 0.01 0.01 76 1021.3
20190116191830 29 150 0.0 4.0 0.00 0.00 0.00 76 1021.3
20190116191745 29 150 1.0 6.0 0.00 0.00 0.00 76 1021.3
20190116191637 29 150 1.0 6.0 0.00 0.00 0.00 76 1021.4
20190116191529 29 150 2.0 6.0 0.00 0.00 0.00 76 1021.4
20190116191439 29 150 1.0 6.0 0.00 0.00 0.00 76 1021.5
20190116191332 29 150 1.0 6.0 0.00 0.00 0.00 77 1021.5
20190116191227 29 150 1.0 6.0 0.00 0.00 0.00 77 1021.5
20190116191139 29 150 2.0 6.0 0.00 0.00 0.00 77 1021.5
20190116191039 29 150 3.0 6.0 0.00 0.00 0.00 77 1021.5
20190116190931 29 150 4.0 6.0 0.00 0.00 0.00 78 1021.5
20190116190842 29 150 4.0 6.0 0.00 0.00 0.00 78 1021.5
20190116190734 29 150 3.0 6.0 0.00 0.00 0.00 77 1021.5
20190116190629 29 150 2.0 5.0 0.00 0.00 0.00 78 1021.5
20190116190543 29 150 2.0 4.0 0.00 0.00 0.00 78 1021.5
20190116190436 29 150 2.0 4.0 0.00 0.00 0.00 78 1021.6
20190116190331 29 150 2.0 4.0 0.00 0.00 0.00 77 1021.7
20190116190244 29 150 2.0 4.0 0.00 0.00 0.00 77 1021.7
20190116190137 29 150 2.0 5.0 0.00 0.00 0.00 78 1021.7
20190116190033 29 150 2.0 5.0 0.00 0.00 0.00 78 1021.8
20190116185942 29 150 2.0 6.0 0.00 0.00 0.00 77 1021.8
20190116185837 29 150 2.0 6.0 0.00 0.00 0.00 77 1021.8
20190116185731 29 150 2.0 6.0 0.00 0.00 0.00 77 1021.9
20190116185624 29 150 2.0 6.0 0.00 0.01 0.00 77 1021.9
20190116185544 29 150 2.0 6.0 0.00 0.01 0.00 78 1021.9
20190116185436 29 150 3.0 6.0 0.00 0.01 0.00 77 1021.9
20190116185329 29 150 3.0 6.0 0.00 0.01 0.00 77 1021.9
20190116185245 29 150 3.0 6.0 0.00 0.01 0.00 77 1021.9
20190116185139 29 150 3.0 6.0 0.00 0.01 0.00 77 1021.9
20190116185033 29 150 2.0 5.0 0.00 0.01 0.00 78 1021.9
20190116184926 29 150 2.0 5.0 0.00 0.01 0.00 78 1021.9
20190116184839 29 150 2.0 6.0 0.00 0.01 0.00 77 1022.0
20190116184736 29 150 2.0 6.0 0.00 0.01 0.00 77 1021.9
20190116184628 29 150 2.0 6.0 0.00 0.01 0.00 77 1022.0
20190116184539 29 150 2.0 6.0 0.00 0.01 0.00 77 1022.0
20190116184432 29 150 3.0 6.0 0.00 0.01 0.00 78 1022.0
20190116184325 29 150 4.0 6.0 0.00 0.01 0.00 77 1022.0
20190116184241 29 150 3.0 6.0 0.00 0.01 0.00 77 1021.9
20190116184136 29 150 3.0 6.0 0.00 0.01 0.00 78 1021.9
20190116184034 29 150 3.0 6.0 0.00 0.01 0.00 78 1022.0
20190116183927 29 150 2.0 4.0 0.00 0.01 0.00 77 1022.0
20190116183842 29 150 1.0 4.0 0.00 0.01 0.00 77 1022.0
20190116183733 29 150 1.0 5.0 0.00 0.01 0.00 77 1022.1
20190116183626 28 150 1.0 5.0 0.00 0.01 0.00 77 1022.2
20190116183539 28 150 2.0 5.0 0.00 0.01 0.00 77 1022.2
20190116183429 28 150 2.0 5.0 0.00 0.01 0.00 77 1022.2
20190116183240 29 150 3.0 5.0 0.00 0.01 0.00 77 1022.2
20190116183131 29 150 3.0 5.0 0.00 0.01 0.00 77 1022.3
20190116183027 29 150 3.0 5.0 0.00 0.01 0.00 76 1022.3
20190116182941 29 150 3.0 5.0 0.00 0.01 0.00 76 1022.3
20190116182836 29 150 3.0 5.0 0.00 0.01 0.00 76 1022.4
20190116182725 29 150 3.0 5.0 0.00 0.01 0.00 76 1022.4
20190116182635 29 150 3.0 5.0 0.00 0.01 0.00 76 1022.4
20190116182529 29 150 2.0 5.0 0.00 0.01 0.00 75 1022.5
20190116182426 29 150 2.0 5.0 0.00 0.01 0.00 76 1022.5
20190116182340 29 150 2.0 5.0 0.00 0.01 0.00 76 1022.5
20190116182235 29 150 2.0 5.0 0.00 0.01 0.00 75 1022.6
20190116182126 29 150 2.0 5.0 0.00 0.01 0.00 75 1022.6
20190116182039 29 150 1.0 5.0 0.00 0.01 0.00 76 1022.6
20190116181933 29 150 0.0 2.0 0.00 0.01 0.00 76 1022.6
20190116181829 29 150 0.0 3.0 0.00 0.01 0.00 76 1022.7
20190116181725 29 150 0.0 3.0 0.00 0.01 0.00 76 1022.7
20190116181635 29 150 0.0 3.0 0.00 0.01 0.00 76 1022.7
20190116181526 29 150 0.0 3.0 0.00 0.01 0.00 76 1022.7
20190116181440 29 150 1.0 3.0 0.00 0.01 0.00 76 1022.7
20190116181335 29 150 1.0 3.0 0.00 0.01 0.00 76 1022.7
20190116181228 29 150 1.0 3.0 0.00 0.01 0.00 76 1022.9
20190116181142 29 150 1.0 3.0 0.00 0.01 0.00 76 1022.9
20190116181038 29 150 1.0 3.0 0.00 0.01 0.00 77 1023.0
20190116180938 29 150 0.0 0.0 0.00 0.01 0.00 77 1023.0
20190116180832 28 150 0.0 0.0 0.00 0.01 0.00 77 1023.0
20190116180740 28 150 0.0 0.0 0.00 0.01 0.00 77 1023.1
20190116180634 28 150 0.0 0.0 0.00 0.01 0.00 77 1023.1
20190116180528 28 150 0.0 0.0 0.00 0.01 0.00 77 1023.1
20190116180440 28 150 0.0 0.0 0.00 0.01 0.00 77 1023.2
20190116180333 28 150 0.0 0.0 0.00 0.01 0.00 77 1023.2
20190116180252 28 150 0.0 0.0 0.00 0.01 0.00 77 1023.2
20190116180205 28 150 0.0 0.0 0.00 0.01 0.00 77 1023.3
20190116180051 28 150 0.0 0.0 0.00 0.01 0.00 77 1023.3
20190116175939 28 150 0.0 0.0 0.00 0.01 0.00 77 1023.3
20190116175827 28 150 0.0 0.0 0.00 0.01 0.00 77 1023.3
20190116175742 28 150 0.0 0.0 0.00 0.01 0.00 77 1023.3
20190116175636 28 150 0.0 0.0 0.00 0.01 0.00 77 1023.3
20190116175531 28 150 0.0 1.0 0.00 0.01 0.00 77 1023.3
20190116175428 28 150 0.0 1.0 0.00 0.01 0.00 77 1023.3
20190116175337 28 150 0.0 1.0 0.00 0.01 0.00 77 1023.4
20190116175230 28 150 0.0 2.0 0.00 0.01 0.00 77 1023.3
20190116175145 28 150 0.0 2.0 0.00 0.01 0.00 77 1023.3
20190116175035 28 150 0.0 3.0 0.00 0.01 0.00 77 1023.3
20190116174928 28 150 0.0 3.0 0.00 0.01 0.00 77 1023.4
20190116174842 28 150 0.0 3.0 0.00 0.01 0.00 77 1023.4
20190116174736 28 150 1.0 3.0 0.00 0.01 0.00 77 1023.4
20190116174630 28 150 1.0 3.0 0.00 0.01 0.00 77 1023.4
20190116174526 28 150 1.0 3.0 0.00 0.01 0.00 77 1023.5
20190116174443 28 150 1.0 3.0 0.00 0.01 0.00 77 1023.5
20190116174245 28 150 2.0 3.0 0.00 0.01 0.00 77 1023.5
20190116174137 28 150 1.0 3.0 0.00 0.01 0.00 77 1023.6
20190116174029 28 150 0.0 3.0 0.00 0.01 0.00 78 1023.6
20190116173943 28 151 0.0 3.0 0.00 0.01 0.00 78 1023.6
20190116173837 28 150 0.0 3.0 0.00 0.01 0.00 78 1023.6
20190116173733 28 150 1.0 4.0 0.00 0.01 0.00 78 1023.6
20190116173627 28 150 2.0 4.0 0.00 0.01 0.00 78 1023.5
20190116173541 28 150 2.0 4.0 0.00 0.01 0.00 78 1023.5
20190116173434 28 150 1.0 4.0 0.00 0.01 0.00 78 1023.6
20190116173329 28 151 1.0 4.0 0.00 0.01 0.00 79 1023.6
20190116173239 28 151 1.0 4.0 0.00 0.01 0.00 79 1023.6
20190116173039 27 150 2.0 5.0 0.00 0.01 0.00 79 1023.5
20190116172935 27 150 3.0 6.0 0.00 0.01 0.00 79 1023.5
20190116172827 27 150 3.0 6.0 0.00 0.01 0.00 78 1023.5
20190116172739 27 150 3.0 6.0 0.00 0.01 0.00 79 1023.5
20190116172631 27 150 3.0 8.0 0.00 0.01 0.00 79 1023.4
20190116172553 27 150 2.0 8.0 0.00 0.01 0.00 79 1023.4
20190116172508 27 150 3.0 8.0 0.00 0.01 0.00 79 1023.4
20190116172246 27 150 4.0 8.0 0.00 0.01 0.00 79 1023.4
20190116172141 27 150 4.0 8.0 0.00 0.01 0.00 79 1023.3
20190116172037 27 150 4.0 8.0 0.00 0.01 0.00 79 1023.3
20190116171931 27 150 4.0 8.0 0.00 0.01 0.00 78 1023.3
20190116171826 27 150 5.0 8.0 0.00 0.01 0.00 78 1023.3
20190116171741 27 150 4.0 6.0 0.00 0.01 0.00 78 1023.3
20190116171634 27 150 4.0 7.0 0.00 0.01 0.00 79 1023.3
20190116171527 27 150 2.0 7.0 0.00 0.01 0.00 79 1023.3
20190116171442 27 150 2.0 7.0 0.00 0.01 0.00 79 1023.3
20190116171233 27 150 3.0 7.0 0.00 0.01 0.00 78 1023.4
20190116171127 27 150 3.0 7.0 0.00 0.01 0.00 79 1023.4
20190116171040 27 150 4.0 7.0 0.00 0.01 0.00 79 1023.4
20190116170933 27 150 4.0 7.0 0.00 0.01 0.00 78 1023.4
20190116170826 27 150 3.0 5.0 0.00 0.01 0.00 79 1023.4
20190116170740 27 150 2.0 5.0 0.00 0.01 0.00 79 1023.4
20190116170628 27 150 2.0 5.0 0.00 0.01 0.00 79 1023.4
20190116170545 27 150 3.0 5.0 0.00 0.01 0.00 79 1023.4
20190116170437 27 151 4.0 5.0 0.00 0.01 0.00 79 1023.5
20190116170330 27 150 4.0 5.0 0.00 0.01 0.00 78 1023.6
20190116170238 27 150 3.0 5.0 0.00 0.01 0.00 79 1023.6
20190116170131 27 150 3.0 5.0 0.00 0.01 0.00 79 1023.7
20190116170041 27 150 4.0 5.0 0.00 0.01 0.00 79 1023.7
20190116165828 27 150 3.0 6.0 0.00 0.01 0.00 79 1023.7
20190116165727 27 150 3.0 6.0 0.00 0.01 0.00 79 1023.7
20190116165640 27 150 3.0 6.0 0.00 0.01 0.00 79 1023.8
20190116165532 27 150 3.0 6.0 0.00 0.01 0.00 78 1023.8
20190116165446 27 150 3.0 6.0 0.00 0.01 0.00 79 1023.8
20190116165338 27 150 4.0 7.0 0.00 0.01 0.00 79 1023.8
20190116165232 27 151 4.0 7.0 0.00 0.01 0.00 78 1023.8
20190116165125 27 150 4.0 7.0 0.00 0.01 0.00 78 1023.9
20190116165039 27 150 4.0 7.0 0.00 0.01 0.00 79 1023.9
20190116164937 27 150 5.0 7.0 0.00 0.01 0.00 78 1023.9
20190116164829 28 150 5.0 7.0 0.00 0.01 0.00 78 1024.0
20190116164744 28 150 5.0 7.0 0.00 0.01 0.00 78 1024.0
20190116164628 28 150 4.0 7.0 0.00 0.01 0.00 78 1023.9
20190116164542 28 150 3.0 5.0 0.00 0.01 0.00 78 1024.0
20190116164432 28 150 2.0 4.0 0.00 0.01 0.00 77 1023.9
20190116164326 28 150 2.0 4.0 0.00 0.01 0.00 77 1024.0
20190116164226 28 150 3.0 4.0 0.00 0.01 0.00 77 1023.9
20190116164140 28 150 3.0 4.0 0.00 0.01 0.00 77 1023.9
20190116164029 28 150 2.0 4.0 0.00 0.01 0.00 77 1023.9
20190116163944 28 150 1.0 4.0 0.00 0.01 0.00 78 1023.9
20190116163838 28 150 0.0 3.0 0.00 0.01 0.00 78 1024.0
20190116163728 28 150 0.0 3.0 0.00 0.01 0.00 78 1024.0
20190116163641 28 150 1.0 3.0 0.00 0.01 0.00 78 1024.0
20190116163536 28 150 1.0 3.0 0.00 0.01 0.00 77 1024.0
20190116163434 28 150 1.0 3.0 0.00 0.01 0.00 78 1024.0
20190116163329 28 150 1.0 3.0 0.00 0.01 0.00 78 1023.9
20190116163239 28 150 1.0 3.0 0.00 0.01 0.00 79 1023.9
20190116163133 28 150 1.0 3.0 0.00 0.01 0.00 79 1024.0
20190116163027 28 150 1.0 3.0 0.00 0.01 0.00 79 1023.9
20190116162941 28 150 1.0 3.0 0.00 0.01 0.00 79 1023.9
20190116162835 28 150 1.0 3.0 0.00 0.01 0.00 79 1023.9
20190116162727 27 150 1.0 3.0 0.00 0.01 0.00 80 1023.8
20190116162645 27 150 2.0 3.0 0.00 0.01 0.00 80 1023.8
20190116162533 27 150 1.0 3.0 0.00 0.01 0.00 80 1023.8
20190116162444 27 150 1.0 5.0 0.00 0.01 0.00 79 1023.8
20190116162338 27 150 1.0 5.0 0.00 0.01 0.00 80 1023.8
20190116162231 27 150 1.0 5.0 0.00 0.01 0.00 80 1023.9
20190116162143 27 150 1.0 5.0 0.00 0.01 0.00 79 1023.9
20190116162037 27 150 2.0 5.0 0.00 0.01 0.00 79 1023.8
20190116161929 27 150 2.0 5.0 0.00 0.01 0.00 79 1023.7
20190116161827 27 150 3.0 5.0 0.00 0.01 0.00 80 1023.7
20190116161740 27 150 3.0 5.0 0.00 0.01 0.00 80 1023.7
20190116161629 27 150 3.0 6.0 0.00 0.01 0.00 79 1023.6
20190116161545 27 150 3.0 6.0 0.00 0.01 0.00 80 1023.6
20190116161439 27 150 3.0 6.0 0.00 0.01 0.00 80 1023.6
20190116161331 27 150 3.0 6.0 0.00 0.01 0.00 80 1023.6
20190116161246 27 150 3.0 6.0 0.00 0.01 0.00 80 1023.6
20190116161137 27 150 3.0 6.0 0.00 0.01 0.00 80 1023.6
20190116161035 27 150 3.0 6.0 0.00 0.01 0.00 80 1023.6
20190116160927 27 150 3.0 6.0 0.00 0.01 0.00 80 1023.6
20190116160843 27 150 4.0 6.0 0.00 0.01 0.00 80 1023.6
20190116160733 27 150 3.0 6.0 0.00 0.01 0.00 80 1023.6
20190116160626 27 150 3.0 6.0 0.00 0.01 0.00 80 1023.5
20190116160540 27 150 4.0 6.0 0.00 0.01 0.00 80 1023.5
20190116160433 27 150 4.0 6.0 0.00 0.01 0.00 79 1023.5
20190116160328 27 150 4.0 6.0 0.00 0.01 0.00 79 1023.6
20190116160246 27 150 4.0 5.0 0.00 0.01 0.00 80 1023.6
20190116160159 27 150 3.0 5.0 0.00 0.01 0.00 80 1023.6
20190116160044 27 150 3.0 5.0 0.00 0.01 0.00 80 1023.6
20190116155931 27 150 3.0 7.0 0.00 0.01 0.00 80 1023.6
20190116155826 27 150 3.0 7.0 0.00 0.01 0.00 80 1023.6
20190116155737 27 151 3.0 7.0 0.00 0.01 0.00 80 1023.6
20190116155630 27 150 3.0 7.0 0.00 0.01 0.00 80 1023.5
20190116155526 27 150 3.0 7.0 0.00 0.01 0.00 80 1023.5
20190116155443 27 150 3.0 7.0 0.00 0.01 0.00 80 1023.5
20190116155337 27 150 3.0 7.0 0.00 0.01 0.00 80 1023.5
20190116155229 27 150 4.0 7.0 0.00 0.01 0.00 80 1023.5
20190116155139 27 150 4.0 7.0 0.00 0.01 0.00 80 1023.4
20190116155031 27 150 4.0 7.0 0.00 0.01 0.00 79 1023.4
20190116154940 27 150 3.0 6.0 0.00 0.01 0.00 79 1023.4
20190116154837 27 150 4.0 6.0 0.00 0.01 0.00 80 1023.3
20190116154734 27 150 3.0 6.0 0.00 0.01 0.00 80 1023.4
20190116154625 27 150 3.0 5.0 0.00 0.01 0.00 80 1023.4
20190116154545 27 150 2.0 5.0 0.00 0.01 0.00 81 1023.4
20190116154327 27 150 2.0 5.0 0.00 0.01 0.00 80 1023.4
20190116154241 27 150 2.0 5.0 0.00 0.01 0.00 80 1023.4
20190116154135 27 150 2.0 5.0 0.00 0.01 0.00 80 1023.4
20190116154030 27 150 3.0 5.0 0.00 0.01 0.00 80 1023.4
20190116153926 27 150 4.0 5.0 0.00 0.01 0.00 79 1023.3
20190116153840 27 150 4.0 5.0 0.00 0.01 0.00 80 1023.3
20190116153735 27 150 3.0 5.0 0.00 0.01 0.00 80 1023.3
20190116153629 27 150 2.0 4.0 0.00 0.01 0.00 81 1023.4
20190116153541 27 150 2.0 4.0 0.00 0.01 0.00 81 1023.4
20190116153433 27 150 1.0 6.0 0.00 0.01 0.00 81 1023.4
20190116153327 27 150 1.0 6.0 0.00 0.01 0.00 80 1023.4
20190116153226 27 150 2.0 6.0 0.00 0.01 0.00 80 1023.3
20190116153139 27 150 2.0 6.0 0.00 0.01 0.00 80 1023.3
20190116153030 27 150 2.0 7.0 0.00 0.01 0.00 80 1023.3
20190116152942 27 150 2.0 7.0 0.00 0.01 0.00 80 1023.3
20190116152831 27 150 3.0 7.0 0.00 0.01 0.00 80 1023.3
20190116152725 27 150 4.0 7.0 0.00 0.01 0.00 80 1023.3
20190116152639 27 150 4.0 7.0 0.00 0.01 0.00 80 1023.3
20190116152530 27 150 3.0 7.0 0.00 0.01 0.00 81 1023.3
20190116152428 27 150 4.0 7.0 0.00 0.01 0.00 81 1023.3
20190116152237 27 150 4.0 7.0 0.00 0.01 0.00 80 1023.2
20190116152130 27 150 3.0 5.0 0.00 0.01 0.00 81 1023.2
20190116152047 27 150 2.0 5.0 0.00 0.01 0.00 81 1023.2
20190116151938 27 150 2.0 5.0 0.00 0.01 0.00 81 1023.3
20190116151830 27 150 2.0 4.0 0.00 0.01 0.00 81 1023.3
20190116151743 27 150 2.0 4.0 0.00 0.01 0.00 81 1023.3
20190116151641 27 150 2.0 4.0 0.00 0.01 0.00 82 1023.3
20190116151535 27 150 2.0 4.0 0.00 0.01 0.00 81 1023.2
20190116151427 27 150 2.0 5.0 0.00 0.01 0.00 81 1023.2
20190116151341 27 150 2.0 5.0 0.00 0.01 0.00 81 1023.2
20190116151232 27 150 2.0 5.0 0.00 0.01 0.00 82 1023.2
20190116151039 26 150 2.0 5.0 0.00 0.01 0.00 82 1023.2
20190116150831 26 150 2.0 5.0 0.00 0.01 0.00 82 1023.1
20190116150726 26 150 2.0 5.0 0.00 0.01 0.00 82 1023.0
20190116150640 26 150 3.0 7.0 0.00 0.01 0.00 82 1023.0
20190116150534 26 150 4.0 7.0 0.00 0.01 0.00 82 1023.0
20190116150428 26 150 3.0 7.0 0.00 0.01 0.00 83 1023.0
20190116150336 26 150 3.0 7.0 0.00 0.01 0.00 83 1022.9
20190116150231 26 150 3.0 7.0 0.00 0.01 0.00 82 1023.0
20190116150045 26 150 4.0 9.0 0.00 0.01 0.00 82 1023.0
20190116145936 26 150 4.0 9.0 0.00 0.01 0.00 82 1023.0
20190116145842 26 150 5.0 9.0 0.00 0.01 0.00 82 1023.0
20190116145735 26 150 5.0 10.0 0.00 0.01 0.00 82 1022.9
20190116145627 26 150 5.0 10.0 0.00 0.01 0.00 82 1022.9
20190116145541 26 150 5.0 10.0 0.00 0.01 0.00 81 1022.9
20190116145435 26 150 6.0 10.0 0.00 0.01 0.00 81 1023.0
20190116145330 26 150 6.0 10.0 0.00 0.01 0.00 81 1023.0
20190116145241 26 150 5.0 10.0 0.00 0.01 0.00 82 1023.0
20190116145135 26 150 6.0 10.0 0.00 0.01 0.00 82 1023.1
20190116145026 26 150 6.0 10.0 0.00 0.01 0.00 82 1023.0
20190116144940 26 150 6.0 10.0 0.00 0.01 0.00 82 1023.0
20190116144834 26 150 6.0 10.0 0.00 0.01 0.00 82 1023.0
20190116144729 26 150 6.0 10.0 0.00 0.01 0.00 83 1023.0
20190116144636 26 150 5.0 8.0 0.00 0.01 0.00 83 1023.0
20190116144533 26 150 4.0 8.0 0.00 0.01 0.00 83 1023.0
20190116144426 26 150 4.0 8.0 0.00 0.01 0.00 84 1023.0
20190116144343 26 150 4.0 8.0 0.00 0.01 0.00 84 1023.0
20190116144237 26 150 3.0 6.0 0.00 0.01 0.00 85 1022.9
20190116144128 26 150 3.0 5.0 0.00 0.01 0.00 85 1023.0
20190116144042 26 150 3.0 5.0 0.00 0.01 0.00 85 1023.0
20190116143933 26 150 2.0 4.0 0.00 0.01 0.00 86 1023.0
20190116143845 25 150 2.0 3.0 0.00 0.01 0.00 86 1023.0
20190116143743 25 150 2.0 3.0 0.00 0.01 0.00 87 1022.9
20190116143637 25 150 2.0 3.0 0.00 0.01 0.00 87 1022.9
20190116143531 25 150 2.0 3.0 0.00 0.01 0.00 87 1022.9
20190116143426 25 150 2.0 3.0 0.00 0.01 0.00 87 1022.9
20190116143340 25 151 2.0 3.0 0.00 0.01 0.00 87 1022.9
20190116143235 25 151 2.0 3.0 0.00 0.01 0.00 87 1022.9
20190116143127 25 150 2.0 3.0 0.00 0.01 0.00 87 1022.9
20190116143041 25 150 2.0 4.0 0.00 0.01 0.00 87 1022.9
20190116142939 25 150 2.0 4.0 0.00 0.01 0.00 87 1022.9
20190116142834 25 150 2.0 4.0 0.00 0.01 0.00 87 1022.8
20190116142727 25 150 2.0 4.0 0.00 0.01 0.00 87 1022.9
20190116142640 25 150 2.0 4.0 0.00 0.01 0.00 87 1022.9
20190116142536 25 150 2.0 4.0 0.00 0.01 0.00 87 1022.7
20190116142428 25 150 2.0 4.0 0.00 0.01 0.00 87 1022.8
20190116142344 25 150 3.0 4.0 0.00 0.01 0.00 86 1022.8
20190116142243 25 150 3.0 4.0 0.00 0.01 0.00 86 1022.8
20190116142137 25 150 3.0 4.0 0.00 0.01 0.00 86 1022.8
20190116142031 25 150 3.0 4.0 0.00 0.01 0.00 86 1022.9
20190116141926 25 150 3.0 4.0 0.00 0.01 0.00 86 1022.9
20190116141841 25 150 2.0 4.0 0.00 0.01 0.00 86 1022.9
20190116141735 26 150 2.0 4.0 0.00 0.01 0.00 85 1022.8
20190116141630 26 150 1.0 4.0 0.00 0.01 0.00 85 1022.9
20190116141529 26 150 1.0 8.0 0.00 0.01 0.00 85 1022.9
20190116141440 26 150 1.0 8.0 0.00 0.01 0.00 85 1022.9
20190116141329 26 150 2.0 8.0 0.00 0.01 0.00 84 1022.8
20190116141243 26 150 2.0 8.0 0.00 0.01 0.00 84 1022.8
20190116141136 26 150 3.0 8.0 0.00 0.01 0.00 84 1022.7
20190116141028 26 150 3.0 8.0 0.00 0.01 0.00 83 1022.7
20190116140940 26 150 3.0 8.0 0.00 0.01 0.00 83 1022.7
20190116140830 26 150 4.0 8.0 0.00 0.01 0.00 83 1022.7
20190116140728 26 150 5.0 8.0 0.00 0.01 0.00 83 1022.7
20190116140643 26 150 5.0 8.0 0.00 0.01 0.00 82 1022.7
20190116140537 26 150 4.0 7.0 0.00 0.01 0.00 83 1022.7
20190116140429 26 150 4.0 7.0 0.00 0.01 0.00 83 1022.7
20190116140341 26 150 4.0 7.0 0.00 0.01 0.00 83 1022.7
20190116140151 26 151 3.0 7.0 0.00 0.01 0.00 84 1022.7
20190116140036 26 150 3.0 7.0 0.00 0.01 0.00 84 1022.6
20190116135927 26 150 3.0 7.0 0.00 0.01 0.00 84 1022.6
20190116135828 26 150 2.0 5.0 0.00 0.01 0.00 85 1022.6
20190116135743 26 150 2.0 6.0 0.00 0.01 0.00 85 1022.6
20190116135637 26 150 1.0 6.0 0.00 0.01 0.00 85 1022.6
20190116135531 26 150 1.0 6.0 0.00 0.01 0.00 85 1022.6
20190116135445 26 150 2.0 6.0 0.00 0.01 0.00 85 1022.6
20190116135340 26 150 3.0 6.0 0.00 0.01 0.00 85 1022.5
20190116135233 26 150 3.0 6.0 0.00 0.01 0.00 85 1022.5
20190116135128 26 151 4.0 6.0 0.00 0.01 0.00 86 1022.5
20190116135043 26 150 4.0 6.0 0.00 0.01 0.00 86 1022.5
20190116134938 26 150 3.0 6.0 0.00 0.01 0.00 86 1022.5
20190116134830 25 150 3.0 4.0 0.00 0.01 0.00 86 1022.6
20190116134745 25 150 2.0 4.0 0.00 0.01 0.00 86 1022.6
20190116134640 25 150 2.0 4.0 0.00 0.01 0.00 86 1022.6
20190116134532 25 150 2.0 4.0 0.00 0.01 0.00 86 1022.6
20190116134425 25 150 1.0 4.0 0.00 0.01 0.00 87 1022.6
20190116134344 25 150 1.0 3.0 0.00 0.01 0.00 87 1022.6
20190116134238 25 150 0.0 3.0 0.00 0.01 0.00 87 1022.6
20190116134133 25 150 0.0 3.0 0.00 0.01 0.00 87 1022.6
20190116134027 25 150 0.0 3.0 0.00 0.01 0.00 87 1022.6
20190116133941 25 150 0.0 3.0 0.00 0.01 0.00 87 1022.6
20190116133833 25 151 1.0 3.0 0.00 0.01 0.00 87 1022.6
20190116133727 25 150 1.0 3.0 0.00 0.01 0.00 87 1022.6
20190116133640 25 150 2.0 3.0 0.00 0.01 0.00 87 1022.6
20190116133538 25 150 2.0 3.0 0.00 0.01 0.00 86 1022.6
20190116133429 25 150 1.0 4.0 0.00 0.01 0.00 86 1022.5
20190116133344 25 150 1.0 4.0 0.00 0.01 0.00 86 1022.5
20190116133236 25 150 0.0 4.0 0.00 0.01 0.00 86 1022.5
20190116133146 25 150 0.0 4.0 0.00 0.01 0.00 86 1022.5
20190116133037 25 150 0.0 4.0 0.00 0.01 0.00 86 1022.5
20190116132933 25 150 1.0 4.0 0.00 0.01 0.00 86 1022.5
20190116132830 25 150 2.0 4.0 0.00 0.01 0.00 86 1022.5
20190116132740 25 150 2.0 4.0 0.00 0.01 0.00 87 1022.5
20190116132633 25 150 3.0 4.0 0.00 0.01 0.00 87 1022.5
20190116132526 25 150 2.0 4.0 0.00 0.01 0.00 87 1022.4
20190116132441 25 151 2.0 4.0 0.00 0.01 0.00 87 1022.4
20190116132334 25 150 1.0 2.0 0.00 0.01 0.00 87 1022.4
20190116132226 25 150 1.0 2.0 0.00 0.01 0.00 87 1022.5
20190116132139 25 150 1.0 3.0 0.00 0.01 0.00 87 1022.4
20190116132035 25 150 0.0 3.0 0.00 0.01 0.00 87 1022.4
20190116131927 25 150 1.0 3.0 0.00 0.01 0.00 87 1022.5
20190116131838 25 150 2.0 3.0 0.00 0.01 0.00 87 1022.4